« Back
NWS Peachtree City, Ga » Text Product » GA Regional Weather Roundup


Printer-friendly Version
Current Version              Previous Versions:   1  2  3  4  5  6  7  8  9  

Regional Weather Roundup

617
ASUS42 KFFC 190503
RWRGA
WEATHER ROUNDUP FOR GEORGIA
NATIONAL WEATHER SERVICE PEACHTREE CITY GA
1200 AM EST FRI DEC 19 2014

NOTE: "FAIR" INDICATES FEW OR NO CLOUDS BELOW 12,000 FEET WITH NO
SIGNIFICANT WEATHER AND/OR OBSTRUCTIONS TO VISIBILITY.

* = USE WITH CAUTION. THE STATIONS MARKED WITH AN ASTERISK MAY NOT
REPORT WEATHER SUCH AS PRECIPITATION, FOG, OR THUNDER AND ARE NOT
QUALITY CONTROLLED BY NWS.

THE REMARK "TC" DENOTES TEMPERATURE READING IN DEGREES CELSIUS.

GAZ001>058-190600-
NORTH GEORGIA

CITY           SKY/WX    TMP DP  RH WIND       PRES   REMARKS
ATLANTA        CLOUDY    41  33  73 NW6       30.15S
ATHENS         MOCLDY    44  33  65 W5        30.12S
CHAMBLEE       MOCLDY    42  32  67 NW6       30.15S
PEACHTREE CITY CLOUDY    37  34  89 CALM      30.16F
ROME           CLEAR     40  35  83 NW5       30.18R
WEST ATLANTA   MOCLDY    40  33  76 NW5       30.16S
GAINESVILLE    PTCLDY    43  34  70 W5        30.13S
CARTERSVILLE   CLEAR     37  33  85 CALM      30.18S


CITY           SKY/WX    TMP DP  RH WIND       PRES   REMARKS
DALTON*        CLEAR     37  34  87 CALM      30.18S
MARIETTA       PTCLDY    41  34  74 NW6       30.15S
$$

GAZ059>098-102>109-190600-
CENTRAL GEORGIA

CITY           SKY/WX    TMP DP  RH WIND       PRES   REMARKS
AUGUSTA-BUSH   MOCLDY    40  37  89 CALM      30.12S
AUGUSTA-DANIEL MOCLDY    52  35  52 VRB3      30.12S
COLUMBUS       MOCLDY    48  35  60 CALM      30.16S
MACON          MOCLDY    43  33  68 W3        30.15F
ROBINS AFB     MOCLDY    45  35  67 N3        30.14F


CITY           SKY/WX    TMP DP  RH WIND       PRES   REMARKS
LAGRANGE*      MOCLDY    40  38  94 CALM      30.16S
SYLVANIA*      MOCLDY    44  42  95 CALM      30.14R
MILLEDGEVILLE* MOCLDY    46  37  71 NW3       30.13F
$$

GAZ099>101-110>166-190600-
SOUTH GEORGIA

CITY           SKY/WX    TMP DP  RH WIND       PRES   REMARKS
SAVANNAH       CLOUDY    45  40  82 CALM      30.13S
VALDOSTA       CLEAR     43  40  89 CALM      30.14F
ALMA           CLOUDY    46  42  86 CALM      30.13F
ST SIMONS      MOCLDY    50  45  83 CALM      30.13S
FT STEWART     MOCLDY    45  40  83 CALM      30.10F
ALBANY         PTCLDY    44  39  82 CALM      30.16F
HUNTER AFB     MOCLDY    45  43  93 W2        30.11R
MOODY AFB      PTCLDY    47  40  75 CALM      30.13F
BRUNSWICK      MOCLDY    46  43  87 W3        30.13S


CITY           SKY/WX    TMP DP  RH WIND       PRES   REMARKS
BAINBRIDGE*    CLEAR     45  43  93 CALM      30.16R
MOULTRIE*      PTCLDY    45  43  93 CALM      30.14F
VIDALIA*       MOCLDY    46  43  87 NW5       30.14S
WAYCROSS*      CLOUDY    50  45  83 CALM      30.13F
DOUGLAS*       CLOUDY    48  41  76 CALM      30.15S
$$



USA.gov is the U.S. government's official web portal to all federal, state and local government web resources and services.